GW6089 Weather Reports


time (UTC)temp
C
wind
direction
speed
KPH
gust
KPH
rain 1hr
cm
rain 24hr
cm
rain mn
cm
humidity
%
barometer
mb
20260505081004 22 121 1.6 9.7 0.00 0.03 0.00 81 1014.0
20260505080906 22 120 1.6 9.7 0.00 0.03 0.00 81 1014.3
20260505080806 22 119 1.6 9.7 0.00 0.03 0.00 81 1014.0
20260505080606 22 118 3.2 9.7 0.00 0.03 0.00 81 1014.1
20260505080506 22 121 1.6 6.4 0.00 0.03 0.00 81 1013.8
20260505080420 22 122 3.2 6.4 0.00 0.03 0.00 81 1014.1
20260505080406 22 123 3.2 6.4 0.00 0.03 0.00 81 1014.1
20260505080306 22 124 3.2 6.4 0.00 0.03 0.00 81 1013.9
20260505080106 22 126 1.6 11.3 0.00 0.03 0.00 81 1014.0
20260505080006 22 126 1.6 11.3 0.00 0.03 0.00 81 1014.1
20260505075906 22 126 1.6 11.3 0.00 0.03 0.00 81 1014.0
20260505075806 22 125 1.6 11.3 0.00 0.03 0.00 81 1014.0
20260505075706 22 123 1.6 11.3 0.00 0.03 0.00 81 1014.1
20260505075606 22 122 1.6 11.3 0.00 0.03 0.00 81 1014.2
20260505075505 22 118 1.6 11.3 0.00 0.03 0.00 81 1014.0
20260505075405 22 118 1.6 11.3 0.00 0.03 0.00 81 1014.0
20260505075318 22 116 1.6 11.3 0.00 0.03 0.00 81 1013.8
20260505075305 22 117 1.6 11.3 0.00 0.03 0.00 81 1013.8
20260505075205 22 123 1.6 11.3 0.00 0.03 0.00 81 1013.7
20260505075120 22 119 1.6 11.3 0.00 0.03 0.00 81 1014.2
20260505075006 22 117 1.6 6.4 0.00 0.03 0.00 81 1014.3
20260505074921 22 119 1.6 6.4 0.00 0.03 0.00 81 1014.1
20260505074820 22 120 1.6 6.4 0.00 0.03 0.00 81 1014.1
20260505074805 22 122 1.6 6.4 0.00 0.03 0.00 81 1014.1
20260505074506 22 131 1.6 6.4 0.00 0.03 0.00 81 1014.0
20260505074404 22 131 1.6 6.4 0.00 0.03 0.00 81 1014.0
20260505074306 22 130 1.6 6.4 0.00 0.03 0.00 81 1014.0
20260505074205 22 125 1.6 6.4 0.00 0.03 0.00 81 1013.7
20260505074105 22 127 1.6 6.4 0.00 0.03 0.00 81 1013.6
20260505074005 22 130 1.6 6.4 0.00 0.03 0.00 81 1013.6
20260505073905 22 128 1.6 4.8 0.00 0.03 0.00 81 1013.9
20260505073805 22 136 1.6 4.8 0.00 0.03 0.00 81 1013.8
20260505073705 22 134 1.6 4.8 0.00 0.03 0.00 81 1013.8
20260505073619 22 144 1.6 4.8 0.00 0.03 0.00 81 1013.9
20260505073605 22 147 1.6 4.8 0.00 0.03 0.00 80 1013.9
20260505073519 22 152 1.6 4.8 0.00 0.03 0.00 80 1013.9
20260505073505 22 154 1.6 4.8 0.00 0.03 0.00 80 1013.9
20260505073205 22 169 1.6 4.8 0.00 0.03 0.00 80 1013.8
20260505073105 22 173 1.6 4.8 0.00 0.03 0.00 80 1013.6
20260505073005 22 174 1.6 4.8 0.00 0.03 0.00 80 1013.7
20260505072904 22 179 1.6 4.8 0.00 0.03 0.00 80 1013.7
20260505072806 22 174 1.6 4.8 0.00 0.03 0.00 80 1013.7
20260505072706 22 172 1.6 4.8 0.00 0.03 0.00 80 1013.8
20260505072605 23 159 0.0 4.8 0.00 0.03 0.00 80 1013.7
20260505072505 23 147 0.0 3.2 0.00 0.03 0.00 80 1013.5
20260505072405 23 139 0.0 1.6 0.00 0.03 0.00 80 1013.4
20260505072305 23 139 0.0 1.6 0.00 0.03 0.00 80 1013.6
20260505072204 23 138 0.0 3.2 0.00 0.03 0.00 80 1013.4
20260505072106 23 138 0.0 3.2 0.00 0.03 0.00 80 1013.4
20260505072007 23 134 0.0 3.2 0.00 0.03 0.00 80 1013.4
20260505071906 23 134 0.0 3.2 0.00 0.03 0.00 80 1013.2
20260505071819 23 135 0.0 3.2 0.00 0.03 0.00 80 1013.2
20260505071805 23 134 0.0 3.2 0.00 0.03 0.00 80 1013.2
20260505071706 23 135 0.0 3.2 0.00 0.03 0.00 79 1013.4
20260505071506 23 135 0.0 3.2 0.00 0.03 0.00 79 1013.3
20260505071406 23 136 0.0 3.2 0.00 0.03 0.00 79 1013.2
20260505071307 23 137 0.0 3.2 0.00 0.03 0.00 79 1013.1
20260505071221 23 137 0.0 3.2 0.00 0.03 0.00 79 1013.2
20260505071106 23 137 0.0 3.2 0.00 0.03 0.00 79 1013.3
20260505070806 23 138 1.6 3.2 0.00 0.03 0.00 79 1012.9
20260505070706 23 136 1.6 3.2 0.00 0.03 0.00 79 1012.8
20260505070605 23 135 1.6 3.2 0.00 0.03 0.00 79 1013.1
20260505070506 23 133 1.6 3.2 0.00 0.03 0.00 79 1012.9
20260505070406 23 131 1.6 3.2 0.00 0.03 0.00 79 1012.9
20260505070306 23 129 1.6 3.2 0.00 0.03 0.00 79 1012.9
20260505070206 23 128 1.6 3.2 0.00 0.03 0.00 79 1013.2
20260505070120 23 127 1.6 3.2 0.00 0.03 0.00 79 1013.0
20260505070106 23 126 1.6 3.2 0.00 0.03 0.00 79 1013.0
20260505070006 23 124 1.6 3.2 0.00 0.03 0.00 79 1013.2
20260505065806 23 119 0.0 3.2 0.00 0.03 0.00 79 1013.1
20260505065706 23 119 1.6 3.2 0.00 0.03 0.00 79 1013.1
20260505065606 23 119 1.6 3.2 0.00 0.03 0.00 79 1013.2
20260505065519 23 119 1.6 3.2 0.00 0.03 0.00 78 1013.2
20260505065504 23 119 1.6 3.2 0.00 0.03 0.00 78 1013.0
20260505065405 23 119 1.6 3.2 0.00 0.03 0.00 78 1013.0
20260505065320 23 119 1.6 3.2 0.00 0.03 0.00 78 1012.9
20260505065206 23 119 1.6 3.2 0.00 0.03 0.00 78 1012.9
20260505065119 23 119 1.6 3.2 0.00 0.03 0.00 78 1013.0
20260505065006 24 118 1.6 3.2 0.00 0.03 0.00 78 1013.0
20260505064805 24 118 1.6 3.2 0.00 0.03 0.00 78 1013.0
20260505064706 24 118 1.6 3.2 0.00 0.03 0.00 78 1013.0
20260505064505 24 118 1.6 3.2 0.00 0.03 0.00 78 1012.9
20260505064405 24 119 1.6 3.2 0.00 0.03 0.00 78 1012.9
20260505064307 24 121 1.6 4.8 0.00 0.03 0.00 78 1012.8
20260505064106 24 117 1.6 4.8 0.00 0.03 0.00 78 1012.7
20260505064005 24 116 1.6 4.8 0.00 0.03 0.00 78 1012.8
20260505063906 24 118 1.6 4.8 0.00 0.03 0.00 78 1012.9
20260505063806 24 119 1.6 4.8 0.00 0.03 0.00 78 1013.1
20260505063706 24 118 1.6 4.8 0.00 0.03 0.00 78 1013.1
20260505063604 24 118 1.6 4.8 0.00 0.03 0.00 78 1013.1
20260505063507 24 117 1.6 4.8 0.00 0.03 0.00 78 1012.8
20260505063406 24 116 1.6 4.8 0.00 0.03 0.00 77 1012.9
20260505063306 24 116 1.6 4.8 0.00 0.03 0.00 77 1012.8
20260505063206 24 118 1.6 4.8 0.00 0.03 0.00 77 1012.9
20260505063106 24 119 1.6 4.8 0.00 0.03 0.00 77 1013.0
20260505063006 24 120 1.6 4.8 0.00 0.03 0.00 77 1012.9
20260505062906 24 119 1.6 4.8 0.00 0.03 0.00 77 1012.8
20260505062806 24 118 1.6 4.8 0.00 0.03 0.00 77 1012.9
20260505062705 24 121 1.6 4.8 0.00 0.03 0.00 77 1013.0
20260505062606 24 123 1.6 4.8 0.00 0.03 0.00 77 1012.9
20260505062507 24 126 1.6 4.8 0.00 0.03 0.00 77 1012.9
20260505062406 24 129 1.6 4.8 0.00 0.03 0.00 77 1012.7
20260505062306 24 130 1.6 4.8 0.00 0.03 0.00 77 1012.7
20260505062221 24 130 1.6 4.8 0.00 0.03 0.00 77 1013.0
20260505062206 24 131 1.6 4.8 0.00 0.03 0.00 77 1013.0
20260505062106 24 132 1.6 4.8 0.00 0.03 0.00 77 1012.7
20260505062020 25 133 1.6 4.8 0.00 0.03 0.00 77 1012.7
20260505061904 24 138 0.0 4.8 0.00 0.03 0.00 77 1012.7
20260505061706 25 139 0.0 3.2 0.00 0.03 0.00 76 1012.7
20260505061605 25 139 0.0 3.2 0.00 0.03 0.00 76 1012.6
20260505061521 25 139 0.0 3.2 0.00 0.03 0.00 76 1012.8
20260505061505 25 139 0.0 3.2 0.00 0.03 0.00 76 1012.8
20260505061404 25 139 0.0 1.6 0.00 0.03 0.00 76 1012.7
20260505061221 25 139 0.0 1.6 0.00 0.03 0.00 76 1012.8
20260505061206 25 139 0.0 1.6 0.00 0.03 0.00 76 1012.8
20260505061106 25 139 0.0 1.6 0.00 0.03 0.00 76 1012.4
20260505060906 25 139 0.0 1.6 0.00 0.03 0.00 76 1012.7
20260505060806 25 139 0.0 1.6 0.00 0.03 0.00 76 1012.5
20260505060722 25 139 0.0 1.6 0.00 0.03 0.00 76 1012.5
20260505060706 25 139 0.0 1.6 0.00 0.03 0.00 76 1012.5
20260505060606 25 139 0.0 1.6 0.00 0.03 0.00 76 1012.6
20260505060405 25 139 0.0 1.6 0.00 0.03 0.00 76 1012.6
20260505060306 25 139 0.0 1.6 0.00 0.03 0.00 76 1012.6
20260505060204 25 139 0.0 1.6 0.00 0.03 0.00 76 1012.5
20260505060106 25 139 0.0 1.6 0.00 0.03 0.00 76 1012.4
20260505060020 25 139 0.0 1.6 0.00 0.03 0.00 76 1012.5
20260505060006 25 139 0.0 1.6 0.00 0.03 0.00 76 1012.5
20260505055906 25 139 0.0 1.6 0.00 0.03 0.00 76 1012.4
20260505055706 25 139 0.0 1.6 0.00 0.03 0.00 76 1012.5
20260505055604 25 139 0.0 3.2 0.00 0.03 0.00 76 1012.6
20260505055505 25 139 0.0 3.2 0.00 0.03 0.00 76 1012.6
20260505055404 25 139 0.0 3.2 0.00 0.03 0.00 76 1012.4
20260505055306 25 139 0.0 3.2 0.00 0.03 0.00 76 1012.4
20260505055206 25 139 0.0 3.2 0.00 0.03 0.00 76 1012.5
20260505055105 25 139 0.0 3.2 0.00 0.03 0.00 76 1012.4
20260505055005 25 139 0.0 3.2 0.00 0.03 0.00 76 1012.2
20260505054905 25 139 0.0 3.2 0.00 0.03 0.00 76 1012.4
20260505054805 25 139 0.0 3.2 0.00 0.03 0.00 76 1012.2
20260505054706 25 139 0.0 3.2 0.00 0.03 0.00 76 1012.1
20260505054606 25 139 0.0 1.6 0.00 0.03 0.00 76 1012.1
20260505054505 25 139 0.0 1.6 0.00 0.03 0.00 76 1012.2
20260505054421 25 139 0.0 1.6 0.00 0.03 0.00 76 1012.2
20260505054304 25 139 0.0 1.6 0.00 0.03 0.00 76 1012.3
20260505054106 25 139 0.0 1.6 0.00 0.03 0.00 76 1012.4
20260505054004 25 139 0.0 1.6 0.00 0.03 0.00 76 1012.4
20260505053906 25 139 0.0 1.6 0.00 0.03 0.00 76 1012.4
20260505053806 25 139 0.0 1.6 0.00 0.03 0.00 77 1012.3
20260505053706 25 139 0.0 1.6 0.00 0.03 0.00 77 1012.2
20260505053606 25 139 0.0 3.2 0.00 0.03 0.00 76 1012.3
20260505053521 25 139 0.0 3.2 0.00 0.03 0.00 76 1012.2
20260505053506 25 139 0.0 3.2 0.00 0.03 0.00 76 1012.2
20260505053406 25 139 0.0 3.2 0.00 0.03 0.00 76 1012.2
20260505053206 25 139 1.6 3.2 0.00 0.03 0.00 76 1012.1
20260505053104 25 139 1.6 3.2 0.00 0.03 0.00 76 1012.1
20260505052918 25 139 1.6 3.2 0.00 0.03 0.00 77 1012.2
20260505052906 25 139 1.6 3.2 0.00 0.03 0.00 77 1012.2
20260505052805 25 140 0.0 3.2 0.00 0.03 0.00 77 1012.2
20260505052721 25 140 0.0 3.2 0.00 0.03 0.00 77 1012.0
20260505052620 25 139 0.0 3.2 0.00 0.03 0.00 77 1012.3
20260505052606 25 139 0.0 3.2 0.00 0.03 0.00 77 1012.3
20260505052304 25 143 0.0 3.2 0.00 0.03 0.00 77 1012.2
20260505052206 25 149 0.0 3.2 0.00 0.03 0.00 77 1012.2
20260505052106 25 143 0.0 3.2 0.00 0.03 0.00 77 1012.1
20260505052006 25 134 0.0 3.2 0.00 0.03 0.00 77 1011.9
20260505051906 25 126 0.0 3.2 0.00 0.03 0.00 77 1012.1
20260505051806 25 123 1.6 3.2 0.00 0.03 0.00 77 1012.3
20260505051706 25 122 1.6 3.2 0.00 0.03 0.00 77 1012.2
20260505051606 25 121 1.6 3.2 0.00 0.03 0.00 77 1012.2
20260505051506 25 121 1.6 3.2 0.00 0.03 0.00 77 1012.1
20260505051419 25 121 1.6 3.2 0.00 0.03 0.00 77 1012.0
20260505051306 25 115 1.6 4.8 0.00 0.03 0.00 77 1012.0
20260505051220 25 107 1.6 4.8 0.00 0.03 0.00 77 1012.0
20260505051105 25 105 1.6 4.8 0.00 0.03 0.00 77 1011.9
20260505050805 25 109 1.6 4.8 0.00 0.03 0.00 77 1012.4
20260505050706 25 110 1.6 4.8 0.00 0.03 0.00 77 1012.0
20260505050406 25 113 1.6 4.8 0.00 0.03 0.00 77 1012.1
20260505050305 25 115 1.6 4.8 0.00 0.03 0.00 77 1012.1
20260505050206 25 121 1.6 4.8 0.00 0.03 0.00 77 1012.1
20260505050106 25 125 1.6 4.8 0.00 0.03 0.00 78 1012.2
20260505041706 25 215 1.6 6.4 0.00 0.03 0.00 79 1011.9
20260505041506 25 219 1.6 6.4 0.00 0.03 0.00 79 1012.0
20260505041406 25 223 1.6 6.4 0.00 0.03 0.00 79 1011.9
20260505041206 25 239 1.6 6.4 0.00 0.03 0.00 79 1012.1
20260505041105 25 244 1.6 6.4 0.00 0.03 0.00 79 1012.1
20260505041005 25 249 3.2 6.4 0.00 0.03 0.00 79 1012.0
20260505040920 25 252 3.2 6.4 0.00 0.03 0.00 79 1012.0
20260505040905 25 253 3.2 6.4 0.00 0.03 0.00 79 1012.0
20260505040804 25 257 3.2 6.4 0.00 0.03 0.00 80 1012.2
20260505040719 25 262 3.2 6.4 0.00 0.03 0.00 80 1012.0
20260505040605 25 262 1.6 6.4 0.00 0.03 0.00 80 1012.1
20260505040421 25 263 3.2 6.4 0.00 0.03 0.00 80 1012.1
20260505040405 25 263 3.2 6.4 0.00 0.03 0.00 80 1012.1
20260505040304 25 265 1.6 6.4 0.00 0.03 0.00 80 1012.2
20260505040106 25 285 1.6 6.4 0.00 0.03 0.00 81 1012.2
20260505040006 25 56 1.6 6.4 0.00 0.03 0.00 81 1011.8
20260505035904 25 73 1.6 3.2 0.00 0.03 0.00 81 1012.3
20260505035806 25 76 1.6 3.2 0.00 0.03 0.00 81 1012.3
20260505035706 25 75 1.6 4.8 0.00 0.03 0.00 81 1012.2
20260505035606 25 76 1.6 4.8 0.00 0.03 0.00 81 1012.0
20260505035505 25 76 3.2 4.8 0.00 0.03 0.00 81 1012.0
20260505035405 25 75 3.2 4.8 0.00 0.03 0.00 81 1012.1
20260505035305 25 75 3.2 4.8 0.00 0.03 0.00 81 1012.0
20260505035106 25 73 3.2 4.8 0.00 0.03 0.00 81 1011.9
20260505035006 25 73 3.2 4.8 0.00 0.03 0.00 81 1012.3
20260505034905 25 72 3.2 4.8 0.00 0.03 0.00 81 1012.0
20260505034807 25 70 3.2 6.4 0.00 0.03 0.00 81 1011.8
20260505034718 25 69 3.2 6.4 0.00 0.03 0.00 82 1011.9
20260505034705 25 68 3.2 6.4 0.00 0.03 0.00 82 1011.9
20260505034606 25 65 3.2 9.7 0.00 0.03 0.00 82 1011.9
20260505034520 25 64 3.2 9.7 0.00 0.03 0.00 81 1012.0
20260505034406 25 63 1.6 9.7 0.00 0.03 0.00 82 1012.0
20260505034220 25 65 3.2 9.7 0.00 0.03 0.00 82 1012.3
20260505034205 25 65 3.2 9.7 0.00 0.03 0.00 82 1012.3
20260505034106 25 66 3.2 9.7 0.00 0.03 0.00 82 1012.1
20260505033906 25 61 3.2 9.7 0.00 0.03 0.00 82 1012.1
20260505033805 25 57 3.2 9.7 0.00 0.03 0.00 82 1011.8
20260505033706 25 54 3.2 9.7 0.00 0.03 0.00 82 1012.1
20260505033606 25 51 1.6 4.8 0.00 0.03 0.00 82 1011.9
20260505033505 25 45 1.6 3.2 0.00 0.03 0.00 82 1012.0
20260505033406 25 42 3.2 3.2 0.00 0.03 0.00 82 1012.0
20260505033306 25 37 1.6 3.2 0.00 0.03 0.00 82 1011.9
20260505033206 25 32 1.6 3.2 0.00 0.03 0.00 82 1012.0
20260505033106 25 27 1.6 3.2 0.00 0.03 0.00 82 1012.0
20260505033006 25 25 1.6 3.2 0.00 0.03 0.00 82 1012.1
20260505032906 25 25 1.6 3.2 0.00 0.03 0.00 82 1011.9
20260505032806 25 25 1.6 3.2 0.00 0.03 0.00 82 1012.0
20260505032706 25 25 1.6 3.2 0.00 0.03 0.00 82 1012.1
20260505032604 25 25 1.6 4.8 0.00 0.03 0.00 83 1012.2
20260505032506 25 25 1.6 4.8 0.00 0.03 0.00 83 1012.0
20260505032406 25 25 1.6 4.8 0.00 0.03 0.00 83 1012.1
20260505032306 25 25 1.6 4.8 0.00 0.03 0.00 83 1012.4
20260505032205 25 25 1.6 4.8 0.00 0.03 0.00 83 1012.3
20260505032106 25 24 1.6 4.8 0.00 0.03 0.00 83 1012.4
20260505032005 25 24 1.6 4.8 0.00 0.03 0.00 83 1012.2
20260505031919 25 24 0.0 4.8 0.00 0.03 0.00 83 1012.3
20260505031820 25 24 0.0 4.8 0.00 0.03 0.00 83 1012.1
20260505031805 25 24 0.0 4.8 0.00 0.03 0.00 84 1012.1
20260505031505 25 24 0.0 1.6 0.00 0.03 0.00 83 1012.2
20260505031405 25 24 0.0 1.6 0.00 0.03 0.00 83 1012.2
20260505031305 25 24 0.0 1.6 0.00 0.03 0.00 83 1012.0
20260505031206 25 25 0.0 3.2 0.00 0.03 0.00 83 1012.2
20260505031106 25 25 0.0 3.2 0.00 0.03 0.00 83 1012.2
20260505031006 25 25 0.0 3.2 0.00 0.03 0.00 83 1012.3
20260505030905 25 25 0.0 3.2 0.00 0.03 0.00 83 1012.1
20260505030805 25 25 0.0 3.2 0.00 0.03 0.00 84 1012.1
20260505030706 25 25 0.0 3.2 0.00 0.03 0.00 83 1011.9
20260505030604 25 25 1.6 3.2 0.00 0.03 0.00 83 1012.2
20260505030506 25 25 1.6 3.2 0.00 0.03 0.00 83 1012.2
20260505030406 25 26 1.6 3.2 0.00 0.03 0.00 84 1012.5
20260505030306 25 30 1.6 3.2 0.00 0.03 0.00 84 1012.2
20260505030206 25 38 1.6 3.2 0.00 0.03 0.00 84 1012.3
20260505030120 25 43 1.6 3.2 0.00 0.03 0.00 84 1012.3
20260505030105 25 45 1.6 3.2 0.00 0.03 0.00 84 1012.3
20260505030006 25 49 1.6 3.2 0.00 0.03 0.00 84 1012.5
20260505025806 24 60 1.6 3.2 0.00 0.03 0.00 84 1012.5
20260505025720 24 65 3.2 3.2 0.00 0.03 0.00 84 1012.5
20260505025706 24 66 1.6 3.2 0.00 0.03 0.00 84 1012.5
20260505025606 24 71 3.2 3.2 0.00 0.03 0.00 84 1012.5
20260505025406 24 83 1.6 3.2 0.00 0.03 0.00 84 1012.5
20260505025305 24 84 1.6 3.2 0.00 0.03 0.00 84 1012.7
20260505025206 24 85 1.6 3.2 0.00 0.03 0.00 84 1012.3
20260505025105 24 85 1.6 4.8 0.00 0.03 0.00 84 1012.5
20260505025006 24 85 1.6 4.8 0.00 0.03 0.00 85 1012.6
20260505024905 24 85 1.6 4.8 0.00 0.03 0.00 85 1012.6
20260505024805 24 85 1.6 4.8 0.00 0.03 0.00 85 1012.3
20260505024705 24 85 1.6 6.4 0.00 0.03 0.00 85 1012.5
20260505024506 24 82 1.6 6.4 0.00 0.03 0.00 85 1012.7
20260505024406 24 79 1.6 6.4 0.00 0.03 0.00 84 1012.5
20260505024306 24 76 1.6 6.4 0.00 0.03 0.00 84 1012.5
20260505024105 24 65 3.2 6.4 0.00 0.03 0.00 84 1012.6
20260505024005 24 56 3.2 6.4 0.00 0.03 0.00 84 1012.5
20260505023905 24 48 3.2 6.4 0.00 0.03 0.00 84 1012.4
20260505023805 24 43 1.6 6.4 0.00 0.03 0.00 85 1012.6
20260505023705 24 36 1.6 6.4 0.00 0.03 0.00 85 1012.7
20260505023605 24 24 1.6 3.2 0.00 0.03 0.00 85 1012.6
20260505023505 24 17 1.6 3.2 0.00 0.03 0.00 85 1012.6
20260505023405 24 17 1.6 3.2 0.00 0.03 0.00 85 1012.5
20260505023318 23 17 1.6 3.2 0.00 0.03 0.00 85 1012.7
20260505023305 23 17 1.6 3.2 0.00 0.03 0.00 85 1012.7
20260505023205 23 17 1.6 3.2 0.00 0.03 0.00 85 1012.8
20260505023005 23 12 1.6 4.8 0.00 0.03 0.00 85 1012.7
20260505022905 23 5 1.6 4.8 0.00 0.03 0.00 85 1012.7
20260505022805 23 14 1.6 4.8 0.00 0.03 0.00 85 1012.8
20260505022705 23 19 1.6 4.8 0.00 0.03 0.00 85 1012.9
20260505022606 23 19 1.6 4.8 0.00 0.03 0.00 85 1012.9
20260505022506 23 20 1.6 4.8 0.00 0.03 0.00 85 1012.9
20260505022420 23 23 1.6 4.8 0.00 0.03 0.00 85 1012.9
20260505022406 23 25 1.6 4.8 0.00 0.03 0.00 85 1012.9
20260505022305 23 26 1.6 4.8 0.00 0.03 0.00 86 1012.8
20260505022105 23 33 1.6 4.8 0.00 0.03 0.00 86 1013.0
20260505022005 23 54 0.0 3.2 0.00 0.03 0.00 86 1012.9
20260505021906 23 57 0.0 3.2 0.00 0.03 0.00 86 1013.0
20260505021806 23 35 0.0 4.8 0.00 0.03 0.00 86 1012.9
20260505021720 23 15 0.0 4.8 0.00 0.03 0.00 86 1012.9
20260505021706 23 16 0.0 4.8 0.00 0.03 0.00 86 1012.9
20260505021606 23 24 1.6 4.8 0.00 0.03 0.00 86 1012.9
20260505021406 23 359 1.6 4.8 0.00 0.03 0.00 86 1013.1
20260505021306 23 344 1.6 4.8 0.00 0.03 0.00 86 1012.8
20260505021206 23 329 1.6 4.8 0.00 0.03 0.00 86 1013.1
20260505021105 23 323 1.6 4.8 0.00 0.03 0.00 87 1012.8
20260505021004 23 317 1.6 4.8 0.00 0.03 0.00 87 1012.9
20260505020906 23 306 1.6 4.8 0.00 0.03 0.00 87 1012.9
20260505020806 23 300 1.6 4.8 0.00 0.03 0.00 87 1013.0
20260505020706 23 287 1.6 4.8 0.00 0.03 0.00 87 1013.1
20260505020606 23 288 1.6 4.8 0.00 0.03 0.00 87 1013.2
20260505020506 23 289 1.6 4.8 0.00 0.03 0.00 87 1013.1
20260505020404 23 290 1.6 4.8 0.00 0.03 0.00 87 1012.9
20260505020106 23 323 1.6 3.2 0.00 0.03 0.00 87 1013.1
20260505020006 23 336 1.6 3.2 0.00 0.03 0.00 87 1013.3
20260505015906 23 1 1.6 3.2 0.00 0.03 0.00 87 1013.0
20260505015806 23 352 1.6 3.2 0.00 0.03 0.00 87 1013.4
20260505015706 23 353 1.6 3.2 0.00 0.03 0.00 87 1013.1
20260505015606 23 7 1.6 3.2 0.00 0.03 0.00 87 1013.2
20260505015504 23 337 1.6 3.2 0.00 0.03 0.00 87 1013.2
20260505015405 23 319 1.6 3.2 0.00 0.03 0.00 87 1013.2
20260505015304 23 320 1.6 3.2 0.00 0.03 0.00 87 1013.2
20260505015204 23 317 1.6 3.2 0.00 0.03 0.00 87 1013.1
20260505015105 23 323 1.6 4.8 0.00 0.03 0.00 87 1013.2
20260505015006 23 318 1.6 6.4 0.00 0.03 0.00 87 1013.2
20260505014907 23 313 1.6 6.4 0.00 0.03 0.00 87 1013.3
20260505014819 23 310 1.6 6.4 0.00 0.03 0.00 87 1013.2
20260505014806 23 311 1.6 6.4 0.00 0.03 0.00 87 1013.2
20260505014705 23 303 1.6 6.4 0.00 0.03 0.00 87 1013.4
20260505014620 23 296 3.2 6.4 0.00 0.03 0.00 87 1013.4
20260505014505 23 293 3.2 6.4 0.00 0.03 0.00 87 1013.4
20260505014420 23 296 3.2 6.4 0.00 0.03 0.00 87 1013.6
20260505014305 23 292 3.2 9.7 0.00 0.03 0.00 87 1013.5
20260505014221 23 289 3.2 9.7 0.00 0.03 0.00 87 1013.6
20260505014106 23 283 3.2 9.7 0.00 0.03 0.00 87 1013.7
20260505013906 23 280 3.2 9.7 0.00 0.03 0.00 87 1013.7
20260505013806 23 279 3.2 9.7 0.00 0.03 0.00 87 1013.6
20260505013706 23 280 3.2 9.7 0.00 0.03 0.00 87 1013.7
20260505013606 23 282 3.2 9.7 0.00 0.03 0.00 88 1013.6
20260505013505 23 279 3.2 9.7 0.00 0.03 0.00 88 1013.8
20260505013405 23 274 3.2 9.7 0.00 0.03 0.00 88 1013.7
20260505013305 23 269 3.2 9.7 0.00 0.03 0.00 88 1013.7
20260505013205 23 266 1.6 6.4 0.00 0.03 0.00 88 1013.7
20260505013119 23 264 1.6 6.4 0.00 0.03 0.00 88 1013.7
20260505013105 23 263 1.6 6.4 0.00 0.03 0.00 88 1013.7
20260505013005 23 264 1.6 6.4 0.00 0.03 0.00 88 1013.7
20260505012806 23 262 1.6 6.4 0.00 0.03 0.00 88 1013.7
20260505012704 23 262 1.6 4.8 0.00 0.03 0.00 88 1013.8
20260505012606 23 265 1.6 4.8 0.00 0.03 0.00 88 1013.8
20260505012506 23 269 1.6 4.8 0.00 0.03 0.00 88 1013.9
20260505012419 23 273 1.6 6.4 0.00 0.03 0.00 88 1014.0
20260505012404 23 274 1.6 6.4 0.00 0.03 0.00 88 1014.0
20260505012305 23 275 1.6 6.4 0.00 0.03 0.00 88 1013.9
20260505012105 23 278 1.6 6.4 0.00 0.03 0.00 88 1014.0
20260505012005 23 276 1.6 6.4 0.00 0.03 0.00 88 1013.9
20260505011905 23 273 1.6 6.4 0.00 0.03 0.00 89 1014.1
20260505011720 23 275 1.6 6.4 0.00 0.03 0.00 89 1013.9
20260505011706 23 276 1.6 6.4 0.00 0.03 0.00 89 1013.9
20260505011618 23 277 1.6 6.4 0.00 0.03 0.00 89 1013.9
20260505011606 23 278 1.6 6.4 0.00 0.03 0.00 89 1013.9
20260505011306 23 281 3.2 6.4 0.00 0.03 0.00 89 1014.1
20260505011206 22 280 3.2 6.4 0.00 0.03 0.00 89 1014.0
20260505011107 22 282 3.2 6.4 0.00 0.03 0.00 89 1014.2
20260505011005 22 281 3.2 6.4 0.00 0.03 0.00 89 1014.1
20260505010906 22 288 3.2 6.4 0.00 0.03 0.00 89 1014.3
20260505010821 22 287 3.2 6.4 0.00 0.03 0.00 89 1014.2
20260505010806 22 286 3.2 6.4 0.00 0.03 0.00 89 1014.2
20260505010706 22 283 3.2 6.4 0.00 0.03 0.00 89 1014.2
20260505010505 22 281 3.2 6.4 0.00 0.03 0.00 89 1014.3
20260505010421 22 282 3.2 6.4 0.00 0.03 0.00 89 1014.2
20260505010405 22 283 3.2 6.4 0.00 0.03 0.00 89 1014.2
20260505010320 22 285 3.2 9.7 0.00 0.03 0.00 89 1014.2
20260505010306 22 287 3.2 9.7 0.00 0.03 0.00 89 1014.2
20260505010121 22 303 3.2 14.5 0.00 0.03 0.00 90 1014.4
20260505010006 22 303 3.2 14.5 0.00 0.03 0.00 90 1014.4
20260505005806 22 302 3.2 14.5 0.00 0.03 0.00 90 1014.2
20260505005705 22 308 3.2 14.5 0.00 0.03 0.00 90 1014.1
20260505005620 22 312 3.2 14.5 0.00 0.03 0.00 90 1014.3
20260505005605 22 314 3.2 14.5 0.00 0.03 0.00 90 1014.3
20260505005505 22 319 3.2 14.5 0.00 0.03 0.00 90 1014.2
20260505005306 22 301 1.6 14.5 0.00 0.03 0.00 90 1014.1
20260505005205 22 271 1.6 9.7 0.00 0.03 0.00 90 1014.2
20260505005105 22 260 1.6 9.7 0.00 0.03 0.00 90 1014.1
20260505005006 22 256 1.6 9.7 0.00 0.03 0.00 90 1014.2
20260505004906 22 252 1.6 9.7 0.00 0.03 0.00 90 1014.2
20260505004805 22 248 1.6 9.7 0.00 0.03 0.00 90 1014.4
20260505004705 22 254 1.6 9.7 0.00 0.03 0.00 90 1014.2
20260505004604 22 255 1.6 9.7 0.00 0.03 0.00 90 1014.2
20260505004504 22 259 1.6 9.7 0.00 0.03 0.00 91 1014.4
20260505004406 21 266 1.6 9.7 0.00 0.03 0.00 91 1014.0
20260505004306 21 272 1.6 9.7 0.00 0.03 0.00 91 1014.3
20260505004206 21 287 1.6 4.8 0.00 0.03 0.00 91 1014.1
20260505004105 21 301 1.6 4.8 0.00 0.03 0.00 91 1014.3
20260505004006 21 306 1.6 4.8 0.00 0.03 0.00 91 1014.3
20260505003906 21 310 1.6 6.4 0.00 0.03 0.00 91 1014.4
20260505003819 21 311 1.6 6.4 0.00 0.03 0.00 91 1014.4
20260505003806 21 311 1.6 6.4 0.00 0.03 0.00 91 1014.4
20260505003707 21 310 1.6 6.4 0.00 0.03 0.00 91 1014.3
20260505003618 21 308 1.6 6.4 0.00 0.03 0.00 91 1014.2
20260505003505 21 301 1.6 6.4 0.00 0.03 0.00 91 1014.1
20260505003306 21 296 1.6 6.4 0.00 0.03 0.00 91 1014.3
20260505003206 21 291 1.6 6.4 0.00 0.03 0.00 91 1014.4
20260505003106 21 283 1.6 6.4 0.00 0.03 0.00 91 1014.5
20260505003006 21 271 1.6 6.4 0.00 0.03 0.00 91 1014.4
20260505002918 21 265 1.6 6.4 0.00 0.03 0.00 91 1014.5
20260505002905 21 263 1.6 6.4 0.00 0.03 0.00 91 1014.5
20260505002819 21 255 1.6 4.8 0.00 0.03 0.00 91 1014.6
20260505002805 21 254 1.6 4.8 0.00 0.03 0.00 91 1014.6
20260505002505 21 243 1.6 9.7 0.00 0.03 0.00 91 1014.5
20260505002419 21 245 3.2 9.7 0.00 0.03 0.00 91 1014.5
20260505002405 21 247 3.2 9.7 0.00 0.03 0.00 91 1014.5
20260505002304 21 241 3.2 9.7 0.00 0.03 0.00 91 1014.6
20260505002106 21 233 3.2 9.7 0.00 0.03 0.00 91 1014.7
20260505002004 21 225 4.8 11.3 0.00 0.03 0.00 91 1014.7
20260505001906 21 223 3.2 11.3 0.00 0.03 0.00 91 1014.7
20260505001806 21 222 3.2 11.3 0.00 0.03 0.00 91 1014.7
20260505001706 21 221 3.2 11.3 0.00 0.03 0.00 91 1014.7
20260505001605 21 224 3.2 11.3 0.00 0.03 0.00 91 1014.6
20260505001406 21 207 1.6 11.3 0.00 0.03 0.00 91 1014.8
20260505001305 21 227 1.6 11.3 0.00 0.03 0.00 92 1014.8
20260505001205 21 292 1.6 11.3 0.00 0.03 0.00 92 1014.5
20260505001105 21 329 1.6 11.3 0.00 0.03 0.00 92 1014.9
20260505001005 21 331 1.6 4.8 0.00 0.03 0.00 92 1015.0
20260505000906 21 330 1.6 4.8 0.00 0.03 0.00 92 1014.9
20260505000806 21 320 1.6 4.8 0.00 0.03 0.00 92 1014.8
20260505000704 21 308 1.6 4.8 0.00 0.03 0.00 92 1014.8
20260505000606 21 289 1.6 4.8 0.00 0.03 0.00 92 1014.9
20260505000520 21 292 1.6 4.8 0.00 0.03 0.00 92 1014.7
20260505000506 21 291 1.6 4.8 0.00 0.03 0.00 92 1014.7
20260505000420 21 294 1.6 4.8 0.00 0.03 0.00 92 1014.9
20260505000405 21 296 1.6 4.8 0.00 0.03 0.00 92 1014.9
20260505000106 20 266 1.6 6.4 0.00 0.03 0.00 92 1014.8
20260505000006 20 254 1.6 6.4 0.00 0.03 0.00 92 1014.8
20260504235905 20 257 1.6 6.4 0.00 0.03 0.00 92 1014.8
20260504235805 20 257 3.2 6.4 0.00 0.03 0.00 92 1014.9
20260504235706 20 252 3.2 6.4 0.00 0.03 0.00 92 1015.1
20260504235606 20 243 3.2 6.4 0.00 0.03 0.00 92 1015.0
20260504235507 20 233 3.2 6.4 0.00 0.03 0.00 92 1014.8
20260504235406 20 223 3.2 6.4 0.00 0.03 0.00 92 1014.8
20260504235306 20 214 3.2 9.7 0.00 0.03 0.00 92 1015.0
20260504235205 20 212 3.2 9.7 0.00 0.03 0.00 92 1014.9
20260504235106 20 211 3.2 9.7 0.00 0.03 0.00 92 1015.0
20260504235005 20 206 3.2 9.7 0.00 0.03 0.00 92 1014.9
20260504234906 20 201 3.2 9.7 0.00 0.03 0.00 92 1015.0
20260504234806 20 200 3.2 9.7 0.00 0.03 0.00 92 1014.8
20260504234706 20 201 3.2 9.7 0.00 0.03 0.00 92 1014.8
20260504234620 20 202 3.2 9.7 0.00 0.03 0.00 92 1014.7
20260504234606 20 202 3.2 9.7 0.00 0.03 0.00 92 1014.7
20260504234505 20 202 3.2 9.7 0.00 0.03 0.00 92 1014.9
20260504234305 20 224 1.6 9.7 0.00 0.03 0.00 92 1014.9
20260504234206 20 233 1.6 6.4 0.00 0.03 0.00 92 1015.1
20260504234105 20 241 1.6 6.4 0.00 0.03 0.00 92 1014.6
20260504234004 20 245 1.6 6.4 0.00 0.03 0.00 92 1015.1
20260504233920 20 254 1.6 6.4 0.00 0.03 0.00 92 1014.8
20260504233906 20 255 1.6 6.4 0.00 0.03 0.00 92 1014.8
20260504233820 20 260 1.6 6.4 0.00 0.03 0.00 92 1015.0
20260504233806 20 261 1.6 6.4 0.00 0.03 0.00 92 1015.0
20260504233507 20 288 3.2 9.7 0.00 0.03 0.00 92 1014.9
20260504233406 20 284 3.2 9.7 0.00 0.03 0.00 92 1014.8
20260504233320 20 280 3.2 9.7 0.00 0.03 0.00 92 1015.0
20260504233305 20 279 3.2 9.7 0.00 0.03 0.00 92 1015.0
20260504233205 20 279 3.2 9.7 0.00 0.03 0.00 92 1014.9
20260504233005 20 287 1.6 9.7 0.00 0.03 0.00 92 1015.0
20260504232906 20 287 1.6 9.7 0.00 0.03 0.00 92 1014.7
20260504232804 20 284 1.6 9.7 0.00 0.03 0.00 92 1014.9
20260504232705 20 281 1.6 9.7 0.00 0.03 0.00 93 1015.1
20260504232605 20 277 1.6 9.7 0.00 0.03 0.00 93 1015.1
20260504232505 20 272 1.6 9.7 0.00 0.03 0.00 93 1015.0
20260504232405 20 273 1.6 4.8 0.00 0.03 0.00 93 1015.0
20260504232305 19 274 1.6 3.2 0.00 0.03 0.00 93 1014.9
20260504232205 19 274 1.6 3.2 0.00 0.03 0.00 93 1014.9
20260504232118 19 274 1.6 4.8 0.00 0.03 0.00 93 1014.8
20260504232105 19 274 1.6 4.8 0.00 0.03 0.00 93 1014.8
20260504232005 19 272 1.6 4.8 0.00 0.03 0.00 93 1014.8
20260504231820 19 269 1.6 4.8 0.00 0.03 0.00 93 1014.9
20260504231805 19 269 1.6 4.8 0.00 0.03 0.00 93 1014.9
20260504231719 19 267 1.6 4.8 0.00 0.03 0.00 93 1015.1
20260504231705 19 267 1.6 4.8 0.00 0.03 0.00 93 1015.1
20260504231620 19 267 1.6 4.8 0.00 0.03 0.00 93 1014.9
20260504231305 19 263 1.6 4.8 0.00 0.03 0.00 93 1015.0
20260504231205 19 262 1.6 4.8 0.00 0.03 0.00 93 1014.9
20260504231105 19 260 1.6 4.8 0.00 0.03 0.00 93 1014.9
20260504231005 19 259 1.6 4.8 0.00 0.03 0.00 93 1014.8
20260504230905 19 259 1.6 3.2 0.00 0.03 0.00 93 1015.1
20260504230805 19 259 0.0 3.2 0.00 0.03 0.00 93 1014.9
20260504230705 19 259 0.0 1.6 0.00 0.03 0.00 93 1014.8
20260504230605 19 259 0.0 1.6 0.00 0.03 0.00 93 1015.1
20260504230505 19 259 0.0 1.6 0.00 0.03 0.00 93 1014.9
20260504230405 18 259 0.0 1.6 0.00 0.03 0.00 93 1014.9
20260504230306 18 259 0.0 1.6 0.00 0.03 0.00 93 1015.1
20260504230206 18 259 0.0 1.6 0.00 0.03 0.00 93 1015.0
20260504230121 18 259 0.0 1.6 0.00 0.03 0.00 93 1014.9
20260504230105 18 259 0.0 1.6 0.00 0.03 0.00 93 1014.9
20260504230019 18 259 0.0 1.6 0.00 0.03 0.00 93 1015.0
20260504230005 18 259 0.0 1.6 0.00 0.03 0.00 93 1015.0
20260504225705 18 259 0.0 1.6 0.00 0.03 0.03 93 1014.8
20260504225621 18 259 0.0 1.6 0.00 0.03 0.03 93 1015.0
20260504225605 18 259 0.0 1.6 0.00 0.03 0.03 93 1015.0
20260504225520 18 259 0.0 1.6 0.00 0.03 0.03 93 1015.0
20260504225506 18 258 0.0 1.6 0.00 0.03 0.03 93 1015.0
20260504225205 18 254 0.0 4.8 0.00 0.03 0.03 93 1015.0
20260504225105 18 251 0.0 4.8 0.00 0.03 0.03 93 1014.8
20260504225005 18 246 0.0 4.8 0.00 0.03 0.03 93 1014.9
20260504224905 18 243 1.6 4.8 0.00 0.03 0.03 93 1014.9
20260504224806 18 239 1.6 4.8 0.00 0.03 0.03 93 1014.8
20260504224705 18 236 1.6 4.8 0.00 0.03 0.03 93 1014.9
20260504224605 18 235 1.6 4.8 0.00 0.03 0.03 93 1014.7
20260504224504 18 234 1.6 4.8 0.03 0.03 0.03 93 1014.8
20260504224405 18 232 1.6 4.8 0.03 0.03 0.03 93 1015.0
20260504224306 18 230 1.6 4.8 0.03 0.03 0.03 93 1015.0
20260504224204 18 221 1.6 4.8 0.03 0.03 0.03 93 1015.0
20260504224104 18 216 1.6 6.4 0.03 0.03 0.03 93 1015.0
20260504224005 18 213 1.6 6.4 0.03 0.03 0.03 93 1014.9
20260504223905 18 209 1.6 6.4 0.03 0.03 0.03 93 1015.0
20260504223805 18 204 1.6 6.4 0.03 0.03 0.03 93 1015.1
20260504223705 18 195 1.6 6.4 0.03 0.03 0.03 93 1015.1
20260504223605 18 193 1.6 6.4 0.03 0.03 0.03 93 1015.1
20260504223505 18 196 1.6 6.4 0.03 0.03 0.03 93 1015.3
20260504223405 18 197 1.6 6.4 0.03 0.03 0.03 93 1015.1
20260504223305 18 198 1.6 6.4 0.03 0.03 0.03 93 1015.1
20260504223205 18 202 1.6 6.4 0.03 0.03 0.03 93 1015.1
20260504223120 18 205 1.6 6.4 0.03 0.03 0.03 93 1015.1
20260504223105 18 205 1.6 4.8 0.03 0.03 0.03 93 1015.1
20260504223004 18 207 1.6 4.8 0.03 0.03 0.03 93 1014.9
20260504222806 18 214 1.6 4.8 0.03 0.03 0.03 93 1015.1
20260504222706 18 218 1.6 4.8 0.03 0.03 0.03 93 1015.2
20260504222606 18 221 1.6 4.8 0.03 0.03 0.03 93 1015.2
20260504222506 18 224 1.6 6.4 0.03 0.03 0.03 93 1015.2
20260504222405 18 227 3.2 6.4 0.03 0.03 0.03 93 1015.3
20260504222321 18 229 3.2 6.4 0.03 0.03 0.03 93 1015.1
20260504222305 18 229 3.2 6.4 0.03 0.03 0.03 93 1015.1
20260504222205 18 231 3.2 6.4 0.03 0.03 0.03 93 1014.8
20260504222005 18 230 3.2 6.4 0.03 0.03 0.03 93 1015.1
20260504221905 18 230 3.2 6.4 0.03 0.03 0.03 93 1015.0
20260504221806 18 232 3.2 6.4 0.03 0.03 0.03 93 1015.1
20260504221719 18 234 3.2 6.4 0.03 0.03 0.03 93 1015.0
20260504221706 18 235 1.6 6.4 0.03 0.03 0.03 93 1015.0
20260504221606 18 239 1.6 6.4 0.03 0.03 0.03 93 1015.1
20260504221405 18 238 1.6 4.8 0.03 0.03 0.03 93 1015.0
20260504221306 18 238 1.6 4.8 0.03 0.03 0.03 93 1015.0
20260504221205 18 240 1.6 4.8 0.03 0.03 0.03 93 1015.0
20260504221105 18 248 1.6 4.8 0.03 0.03 0.03 93 1015.1
20260504221004 18 248 1.6 4.8 0.03 0.03 0.03 93 1015.1
20260504220906 18 246 1.6 4.8 0.03 0.03 0.03 93 1015.0
20260504220806 18 245 1.6 4.8 0.03 0.03 0.03 93 1015.0
20260504220704 18 244 1.6 4.8 0.03 0.03 0.03 93 1015.0
20260504220606 18 243 1.6 4.8 0.03 0.03 0.03 93 1014.9
20260504220505 18 240 1.6 4.8 0.03 0.03 0.03 93 1014.8
20260504220406 18 239 1.6 4.8 0.03 0.03 0.03 93 1014.9
20260504220307 18 237 1.6 4.8 0.03 0.03 0.03 93 1015.0
20260504220205 18 232 1.6 4.8 0.03 0.03 0.03 93 1015.1
20260504220104 18 224 0.0 3.2 0.03 0.03 0.03 93 1015.0
20260504220005 18 221 0.0 3.2 0.03 0.03 0.03 93 1015.2
20260504215919 18 219 0.0 3.2 0.03 0.03 0.03 93 1015.0
20260504215904 18 218 0.0 1.6 0.03 0.03 0.03 93 1015.0
20260504215806 18 217 0.0 1.6 0.03 0.03 0.03 93 1014.9
20260504215606 18 217 0.0 1.6 0.03 0.03 0.03 93 1015.0
20260504215505 18 217 0.0 1.6 0.03 0.03 0.03 93 1015.3
20260504215405 18 217 0.0 1.6 0.03 0.03 0.03 93 1015.0
20260504215319 18 217 0.0 1.6 0.03 0.03 0.03 93 1014.9
20260504215305 18 217 0.0 1.6 0.03 0.03 0.03 93 1014.9
20260504215005 18 217 0.0 1.6 0.03 0.03 0.03 93 1015.1
20260504214905 17 217 0.0 1.6 0.03 0.03 0.03 93 1015.2
20260504214805 17 217 0.0 1.6 0.03 0.03 0.03 93 1015.0
20260504214706 17 217 0.0 1.6 0.03 0.03 0.03 93 1015.0
20260504214605 17 217 0.0 1.6 0.03 0.03 0.03 93 1015.2
20260504214505 17 217 0.0 1.6 0.00 0.00 0.00 93 1014.9
20260504214405 17 217 0.0 1.6 0.00 0.00 0.00 93 1014.9
20260504214305 17 217 0.0 1.6 0.00 0.00 0.00 93 1014.8
20260504214206 17 217 0.0 1.6 0.00 0.00 0.00 93 1015.0
20260504214120 17 217 0.0 1.6 0.00 0.00 0.00 93 1015.0
20260504214106 17 217 0.0 1.6 0.00 0.00 0.00 93 1015.0
20260504214006 17 217 0.0 1.6 0.00 0.00 0.00 93 1015.0
20260504213921 17 217 0.0 1.6 0.00 0.00 0.00 93 1014.8
20260504213820 17 217 0.0 1.6 0.00 0.00 0.00 93 1015.2
20260504213805 17 217 0.0 1.6 0.00 0.00 0.00 93 1015.2
20260504213505 17 0 0.0 0.0 0.00 0.00 0.00 93 1015.1
20260504213406 17 0 0.0 0.0 0.00 0.00 0.00 93 1014.8
20260504213321 17 0 0.0 0.0 0.00 0.00 0.00 93 1015.2
20260504213305 17 0 0.0 0.0 0.00 0.00 0.00 93 1015.2
20260504213206 17 0 0.0 0.0 0.00 0.00 0.00 93 1015.2
20260504213006 17 217 0.0 1.6 0.00 0.00 0.00 93 1014.8
20260504212904 17 217 0.0 3.2 0.00 0.00 0.00 93 1014.9
20260504212806 17 217 0.0 3.2 0.00 0.00 0.00 93 1014.9
20260504212706 17 216 0.0 3.2 0.00 0.00 0.00 93 1015.0
20260504212619 17 216 0.0 3.2 0.00 0.00 0.00 93 1014.7
20260504212606 17 216 0.0 3.2 0.00 0.00 0.00 93 1014.7
20260504212506 17 216 0.0 3.2 0.00 0.00 0.00 93 1014.8
20260504212420 17 216 0.0 3.2 0.00 0.00 0.00 93 1014.8
20260504212306 17 216 0.0 3.2 0.00 0.05 0.00 92 1014.8
20260504212106 17 215 0.0 3.2 0.00 0.05 0.00 92 1014.9
20260504212006 17 214 0.0 3.2 0.00 0.05 0.00 92 1014.8
20260504211906 17 212 0.0 1.6 0.00 0.05 0.00 92 1014.7
20260504211804 17 211 0.0 1.6 0.00 0.05 0.00 92 1014.4
20260504211706 17 210 0.0 1.6 0.00 0.05 0.00 92 1014.7
20260504211506 17 207 0.0 1.6 0.00 0.05 0.00 92 1014.7
20260504211406 17 206 0.0 1.6 0.00 0.05 0.00 92 1014.4
20260504211306 17 205 0.0 1.6 0.00 0.05 0.00 92 1014.6
20260504211204 17 204 0.0 1.6 0.00 0.05 0.00 92 1014.8
20260504211120 17 199 0.0 1.6 0.00 0.05 0.00 92 1014.7
20260504211106 17 199 0.0 1.6 0.00 0.05 0.00 92 1014.7
20260504211005 17 199 0.0 3.2 0.00 0.05 0.00 92 1014.6
20260504210921 17 200 0.0 3.2 0.00 0.05 0.00 92 1014.6
20260504210805 17 200 0.0 3.2 0.00 0.05 0.00 92 1014.8
20260504210606 17 200 0.0 3.2 0.00 0.05 0.00 92 1015.0
20260504210504 17 201 0.0 3.2 0.00 0.05 0.00 92 1014.7
20260504210406 17 203 0.0 3.2 0.00 0.05 0.00 92 1014.7
20260504210306 17 203 0.0 3.2 0.00 0.05 0.00 92 1014.5
20260504210205 17 205 0.0 3.2 0.00 0.05 0.00 92 1014.8
20260504210105 17 208 0.0 3.2 0.00 0.05 0.00 92 1014.6
20260504210020 17 210 0.0 3.2 0.00 0.05 0.00 92 1014.8
20260504210006 17 211 0.0 3.2 0.00 0.05 0.00 92 1014.8
20260504205905 17 217 0.0 1.6 0.00 0.05 0.00 92 1014.5
20260504205621 17 217 0.0 1.6 0.00 0.05 0.00 92 1014.5
20260504205606 17 217 0.0 1.6 0.00 0.05 0.00 92 1014.5
20260504205506 17 217 0.0 3.2 0.00 0.05 0.00 92 1014.5
20260504205306 17 217 0.0 3.2 0.00 0.05 0.00 92 1014.6
20260504205205 17 217 0.0 3.2 0.00 0.05 0.00 92 1014.3
20260504205106 17 217 0.0 3.2 0.00 0.05 0.00 92 1014.6
20260504205005 17 217 0.0 3.2 0.00 0.05 0.00 92 1014.7
20260504204805 17 216 0.0 3.2 0.00 0.05 0.00 92 1014.5
20260504204705 17 216 0.0 3.2 0.00 0.05 0.00 92 1014.6
20260504204606 17 216 0.0 3.2 0.00 0.05 0.00 92 1014.5
20260504204505 17 216 0.0 1.6 0.00 0.05 0.00 92 1014.7
20260504204406 17 209 0.0 1.6 0.00 0.05 0.00 92 1014.5
20260504204305 17 190 0.0 1.6 0.00 0.05 0.00 92 1014.4
20260504204205 17 185 0.0 1.6 0.00 0.05 0.00 92 1014.5
20260504204105 17 170 0.0 1.6 0.00 0.05 0.00 92 1014.4
20260504204020 17 162 0.0 1.6 0.00 0.05 0.00 92 1014.3
20260504204005 17 159 0.0 1.6 0.00 0.05 0.00 92 1014.3
20260504203905 17 157 0.0 1.6 0.00 0.05 0.00 92 1014.3
20260504203706 17 148 0.0 1.6 0.00 0.05 0.00 92 1014.5
20260504203605 17 131 0.0 1.6 0.00 0.05 0.00 92 1014.3
20260504203519 17 131 0.0 1.6 0.00 0.05 0.00 92 1014.4
20260504203504 17 129 0.0 1.6 0.00 0.05 0.00 92 1014.4
20260504203406 17 114 0.0 1.6 0.00 0.05 0.00 92 1014.3
20260504203318 17 117 0.0 1.6 0.00 0.05 0.00 92 1014.4
20260504203205 17 122 0.0 1.6 0.00 0.05 0.00 92 1014.5
20260504202918 17 150 0.0 1.6 0.00 0.05 0.00 92 1014.4
20260504202906 17 155 0.0 1.6 0.00 0.05 0.00 92 1014.4
20260504202805 17 166 0.0 1.6 0.00 0.05 0.00 92 1014.4
20260504202720 17 169 0.0 1.6 0.00 0.05 0.00 92 1014.2
20260504202605 17 169 0.0 1.6 0.00 0.05 0.00 92 1014.3
20260504202405 17 169 0.0 1.6 0.00 0.05 0.00 92 1014.5
20260504202305 17 181 0.0 1.6 0.00 0.05 0.00 92 1014.2
20260504202205 17 181 0.0 1.6 0.00 0.05 0.00 92 1014.4
20260504202105 17 181 0.0 1.6 0.00 0.05 0.00 92 1014.3
20260504202006 17 181 0.0 1.6 0.00 0.05 0.00 92 1014.4
20260504201906 17 181 0.0 1.6 0.00 0.05 0.00 92 1014.3
20260504201821 17 181 0.0 1.6 0.00 0.05 0.00 92 1014.0
20260504201705 17 181 0.0 1.6 0.00 0.05 0.00 92 1014.2
20260504201505 17 181 0.0 1.6 0.00 0.05 0.00 92 1014.2
20260504201405 17 181 0.0 1.6 0.00 0.05 0.00 92 1014.3
20260504201204 17 181 0.0 1.6 0.00 0.05 0.00 92 1014.1
20260504201106 17 181 0.0 1.6 0.00 0.05 0.00 92 1014.3
20260504201005 17 181 0.0 1.6 0.00 0.05 0.00 92 1014.0
20260504200905 17 181 0.0 1.6 0.00 0.05 0.00 92 1014.1
20260504200804 17 0 0.0 0.0 0.00 0.05 0.00 92 1014.2
20260504200706 17 181 0.0 1.6 0.00 0.05 0.00 92 1014.3
20260504200605 17 181 0.0 1.6 0.00 0.05 0.00 92 1014.4
20260504200506 17 181 0.0 1.6 0.00 0.05 0.00 92 1014.1
20260504200405 17 181 0.0 1.6 0.00 0.05 0.00 92 1014.1
20260504200305 17 181 0.0 1.6 0.00 0.05 0.00 92 1014.2
20260504200205 17 181 0.0 1.6 0.00 0.05 0.00 92 1014.2
20260504200105 17 181 0.0 4.8 0.00 0.05 0.00 92 1014.1
20260504200004 17 180 0.0 4.8 0.00 0.05 0.00 92 1013.9
20260504195904 17 180 0.0 4.8 0.00 0.05 0.00 92 1014.1
20260504195705 17 189 0.0 4.8 0.00 0.05 0.00 92 1014.0
20260504195606 17 200 1.6 4.8 0.00 0.05 0.00 92 1014.2
20260504195506 17 205 1.6 4.8 0.00 0.05 0.00 92 1014.0
20260504195406 17 208 0.0 4.8 0.00 0.05 0.00 92 1014.2
20260504195305 17 211 0.0 4.8 0.00 0.05 0.00 92 1014.1
20260504195205 17 214 0.0 4.8 0.00 0.05 0.00 92 1013.8
20260504195119 17 222 0.0 4.8 0.00 0.05 0.00 92 1014.2
20260504195105 17 229 0.0 3.2 0.00 0.05 0.00 92 1014.2
20260504195005 17 234 0.0 3.2 0.00 0.05 0.00 92 1014.0
20260504194920 17 234 0.0 3.2 0.00 0.05 0.00 92 1013.9
20260504194806 17 234 0.0 4.8 0.00 0.05 0.00 92 1014.1
20260504194606 17 224 0.0 4.8 0.00 0.05 0.00 92 1014.0
20260504194505 17 218 1.6 4.8 0.00 0.05 0.00 92 1014.1
20260504194404 17 212 1.6 4.8 0.00 0.05 0.00 92 1014.0
20260504194306 17 210 1.6 4.8 0.00 0.05 0.00 92 1014.0
20260504194206 17 210 1.6 4.8 0.00 0.05 0.00 92 1014.2
20260504194106 17 210 1.6 4.8 0.00 0.05 0.00 92 1014.0
20260504194005 17 210 1.6 4.8 0.00 0.05 0.00 92 1013.8
20260504193906 17 208 1.6 4.8 0.00 0.05 0.00 92 1014.0
20260504193804 17 201 1.6 4.8 0.00 0.05 0.00 92 1013.8
20260504193706 17 195 0.0 3.2 0.00 0.05 0.00 92 1014.0
20260504193605 17 194 0.0 3.2 0.00 0.05 0.00 92 1014.0
20260504193404 17 194 0.0 1.6 0.00 0.05 0.00 92 1014.2
20260504193306 17 194 0.0 1.6 0.00 0.05 0.00 92 1014.2
20260504193206 17 194 0.0 1.6 0.00 0.05 0.00 92 1014.1
20260504193106 17 194 0.0 3.2 0.00 0.05 0.00 92 1014.1
20260504193006 17 194 0.0 3.2 0.00 0.05 0.00 92 1014.2
20260504192905 17 194 0.0 3.2 0.00 0.05 0.00 92 1014.2
20260504192806 17 194 0.0 3.2 0.00 0.05 0.00 92 1014.1
20260504192705 17 194 0.0 3.2 0.00 0.05 0.00 92 1014.0
20260504192606 17 193 0.0 3.2 0.00 0.05 0.00 92 1014.1
20260504192506 17 197 1.6 3.2 0.00 0.05 0.00 92 1014.0
20260504192406 17 200 1.6 3.2 0.00 0.05 0.00 92 1014.1
20260504192220 17 201 1.6 3.2 0.00 0.05 0.00 92 1014.1
20260504192206 17 202 1.6 3.2 0.00 0.05 0.00 92 1014.1
20260504192106 17 205 1.6 3.2 0.00 0.05 0.00 92 1014.0
20260504191906 17 207 1.6 3.2 0.00 0.05 0.00 92 1014.0
20260504191806 17 204 1.6 4.8 0.00 0.05 0.00 92 1014.1
20260504191706 17 206 1.6 6.4 0.00 0.05 0.00 92 1014.0
20260504191620 17 216 1.6 6.4 0.00 0.05 0.00 92 1013.9
20260504191605 17 217 1.6 6.4 0.00 0.05 0.00 92 1013.9
20260504191506 17 216 1.6 6.4 0.00 0.05 0.00 92 1014.2
20260504191306 17 216 1.6 6.4 0.00 0.05 0.00 92 1014.0
20260504191205 17 211 1.6 6.4 0.00 0.05 0.00 92 1013.9
20260504191006 17 206 1.6 6.4 0.00 0.05 0.00 92 1014.0
20260504190905 17 202 1.6 6.4 0.00 0.05 0.00 92 1014.0
20260504190804 17 204 1.6 6.4 0.00 0.05 0.00 92 1013.9
20260504190706 17 204 1.6 6.4 0.00 0.05 0.00 92 1013.8
20260504190620 17 190 1.6 6.4 0.00 0.05 0.00 92 1014.0
20260504190605 17 185 1.6 6.4 0.00 0.05 0.00 92 1014.0
20260504190506 17 185 0.0 3.2 0.00 0.05 0.00 91 1014.1
20260504190307 17 185 0.0 3.2 0.00 0.05 0.00 92 1014.0
20260504190206 17 190 0.0 3.2 0.00 0.05 0.00 92 1013.8
20260504190106 17 189 0.0 3.2 0.00 0.05 0.00 92 1013.9
20260504185906 17 207 0.0 3.2 0.00 0.05 0.00 92 1013.7
20260504185805 17 217 0.0 3.2 0.00 0.05 0.00 92 1013.6
20260504185705 17 222 0.0 3.2 0.00 0.05 0.00 92 1013.7
20260504185606 17 228 0.0 3.2 0.00 0.05 0.00 92 1013.9
20260504185506 17 232 0.0 3.2 0.00 0.05 0.00 91 1013.6
20260504185406 17 233 0.0 3.2 0.00 0.05 0.00 91 1013.9
20260504185306 17 234 0.0 3.2 0.00 0.05 0.00 91 1013.8
20260504185218 17 237 0.0 3.2 0.00 0.05 0.00 91 1013.9
20260504185205 17 238 0.0 3.2 0.00 0.05 0.00 91 1013.9
20260504185106 17 240 0.0 3.2 0.00 0.05 0.00 91 1013.8
20260504184904 17 243 0.0 3.2 0.00 0.05 0.00 91 1013.8
20260504184806 17 247 0.0 3.2 0.00 0.05 0.00 91 1013.7
20260504184706 17 247 0.0 3.2 0.00 0.05 0.00 91 1013.6
20260504184605 17 247 0.0 3.2 0.00 0.05 0.00 91 1013.9
20260504184504 17 248 0.0 3.2 0.00 0.05 0.00 91 1013.8
20260504184406 17 248 0.0 3.2 0.00 0.05 0.00 91 1013.6
20260504184306 17 249 0.0 3.2 0.00 0.05 0.00 91 1013.7
20260504184220 17 251 0.0 3.2 0.00 0.05 0.00 92 1013.7
20260504183905 17 0 0.0 0.0 0.00 0.05 0.00 92 1013.6
20260504183805 17 0 0.0 0.0 0.00 0.05 0.00 92 1013.6
20260504183705 17 0 0.0 0.0 0.00 0.05 0.00 91 1013.7
20260504183604 17 0 0.0 0.0 0.00 0.05 0.00 91 1013.7
20260504183505 17 0 0.0 0.0 0.00 0.05 0.00 92 1013.9
20260504183405 17 0 0.0 0.0 0.00 0.05 0.00 91 1013.7
20260504183320 17 0 0.0 0.0 0.00 0.05 0.00 92 1013.6
20260504183305 17 253 0.0 1.6 0.00 0.05 0.00 92 1013.6
20260504183205 17 253 0.0 1.6 0.00 0.05 0.00 91 1013.9
20260504183006 17 254 0.0 3.2 0.00 0.05 0.00 91 1013.6
20260504182905 17 254 0.0 3.2 0.00 0.05 0.00 91 1013.6
20260504182806 17 254 0.0 3.2 0.00 0.05 0.00 91 1013.6
20260504182605 17 253 0.0 3.2 0.00 0.05 0.00 91 1013.6
20260504182505 17 253 0.0 3.2 0.00 0.05 0.00 91 1013.6
20260504182405 17 253 0.0 3.2 0.00 0.05 0.00 91 1013.6
20260504182305 17 253 0.0 3.2 0.00 0.05 0.00 91 1013.7
20260504182204 17 253 0.0 3.2 0.00 0.05 0.00 91 1013.5
20260504182106 17 253 0.0 1.6 0.00 0.05 0.00 91 1013.6
20260504182005 17 253 0.0 1.6 0.00 0.05 0.00 91 1013.6
20260504181905 17 253 0.0 1.6 0.00 0.05 0.00 91 1013.4
20260504181806 17 257 0.0 1.6 0.00 0.05 0.00 91 1013.5
20260504181721 17 258 0.0 1.6 0.00 0.05 0.00 91 1013.5
20260504181705 17 259 0.0 1.6 0.00 0.05 0.00 91 1013.5
20260504181605 17 261 0.0 1.6 0.00 0.05 0.00 91 1013.5
20260504181405 17 263 0.0 1.6 0.00 0.05 0.00 91 1013.4
20260504181305 17 265 0.0 1.6 0.00 0.05 0.00 91 1013.4
20260504181206 17 265 0.0 1.6 0.00 0.05 0.00 91 1013.4
20260504181106 17 265 0.0 1.6 0.00 0.05 0.00 91 1013.7
20260504181005 17 265 0.0 1.6 0.00 0.05 0.00 91 1013.5
20260504180905 17 265 0.0 3.2 0.00 0.05 0.00 91 1013.4
20260504180820 17 266 0.0 3.2 0.00 0.05 0.00 91 1013.6
20260504180704 17 267 0.0 3.2 0.00 0.05 0.00 91 1013.3
20260504180506 17 268 0.0 3.2 0.00 0.05 0.00 91 1013.4
20260504180405 17 269 0.0 3.2 0.00 0.05 0.00 91 1013.5
20260504180305 17 269 0.0 3.2 0.00 0.05 0.00 91 1013.4
20260504180205 17 270 0.0 3.2 0.00 0.05 0.00 91 1013.6
20260504180105 17 271 0.0 3.2 0.00 0.05 0.00 91 1013.5
20260504180006 17 272 1.6 3.2 0.00 0.05 0.00 91 1013.5
20260504175906 17 273 1.6 3.2 0.00 0.05 0.00 91 1013.2
20260504175805 17 274 0.0 3.2 0.00 0.05 0.00 91 1013.5
20260504175706 17 274 0.0 3.2 0.00 0.05 0.00 91 1013.6
20260504175606 17 274 0.0 3.2 0.00 0.05 0.00 91 1013.5
20260504175506 17 274 0.0 3.2 0.00 0.05 0.00 91 1013.5
20260504175406 17 274 0.0 3.2 0.00 0.05 0.00 91 1013.4
20260504175306 17 274 0.0 3.2 0.00 0.05 0.00 91 1013.5
20260504175106 17 274 0.0 3.2 0.00 0.05 0.00 91 1013.4
20260504175006 17 274 0.0 1.6 0.00 0.05 0.00 91 1013.4
20260504174905 17 0 0.0 0.0 0.00 0.05 0.00 91 1013.5
20260504174805 17 0 0.0 0.0 0.00 0.05 0.00 91 1013.3
20260504174706 17 0 0.0 0.0 0.00 0.05 0.00 91 1013.4
20260504174406 17 0 0.0 0.0 0.00 0.05 0.00 91 1013.3
20260504174305 17 0 0.0 0.0 0.00 0.05 0.00 91 1013.2
20260504174206 17 0 0.0 0.0 0.00 0.05 0.00 91 1013.5
20260504174107 17 0 0.0 0.0 0.00 0.05 0.00 91 1013.0
20260504174006 17 0 0.0 0.0 0.00 0.05 0.00 91 1013.2
20260504173906 17 0 0.0 0.0 0.00 0.05 0.00 91 1013.0
20260504173804 17 0 0.0 0.0 0.00 0.05 0.00 91 1013.0
20260504173706 17 273 0.0 1.6 0.00 0.05 0.00 91 1013.0
20260504173605 17 273 0.0 1.6 0.00 0.05 0.00 91 1013.2
20260504173505 17 273 0.0 1.6 0.00 0.05 0.00 91 1013.2
20260504173404 17 273 0.0 1.6 0.00 0.05 0.00 91 1013.1
20260504173205 17 273 0.0 1.6 0.00 0.05 0.00 91 1013.3
20260504173106 17 273 0.0 1.6 0.00 0.05 0.00 91 1013.2
20260504173006 18 273 0.0 1.6 0.00 0.05 0.00 91 1013.4
20260504172906 18 273 0.0 1.6 0.00 0.05 0.00 91 1013.4
20260504172805 18 273 0.0 1.6 0.00 0.05 0.00 91 1013.3
20260504172706 17 0 0.0 0.0 0.00 0.05 0.00 91 1013.2
20260504172606 18 0 0.0 0.0 0.00 0.05 0.00 91 1013.1
20260504172506 18 0 0.0 0.0 0.00 0.05 0.00 91 1013.2
20260504172405 18 0 0.0 0.0 0.00 0.05 0.00 91 1013.2
20260504172306 18 0 0.0 0.0 0.00 0.05 0.00 91 1013.4
20260504172207 18 0 0.0 0.0 0.00 0.05 0.00 91 1013.3
20260504172106 18 0 0.0 0.0 0.00 0.05 0.00 91 1013.4
20260504172005 18 0 0.0 0.0 0.00 0.05 0.00 91 1013.4
20260504171906 18 0 0.0 0.0 0.00 0.05 0.00 91 1013.2
20260504171805 18 0 0.0 0.0 0.00 0.05 0.00 91 1013.2
20260504171706 18 0 0.0 0.0 0.00 0.05 0.00 91 1013.2
20260504171606 18 0 0.0 0.0 0.00 0.05 0.00 91 1013.3
20260504171520 18 0 0.0 0.0 0.00 0.05 0.00 91 1013.1
20260504171405 18 0 0.0 0.0 0.00 0.05 0.00 91 1013.4
20260504171106 18 0 0.0 0.0 0.00 0.05 0.00 91 1013.1
20260504171006 18 0 0.0 0.0 0.00 0.05 0.00 91 1013.2
20260504170906 18 0 0.0 0.0 0.00 0.05 0.00 91 1013.2
20260504170805 17 0 0.0 0.0 0.00 0.05 0.00 91 1013.1
20260504170706 18 0 0.0 0.0 0.00 0.05 0.00 91 1013.3
20260504170605 17 0 0.0 0.0 0.00 0.05 0.00 91 1013.3
20260504170505 18 0 0.0 0.0 0.00 0.05 0.00 91 1013.1
20260504170406 18 0 0.0 0.0 0.00 0.05 0.00 91 1013.2
20260504170306 17 0 0.0 0.0 0.00 0.05 0.00 91 1013.3
20260504170106 17 273 0.0 1.6 0.00 0.05 0.00 91 1013.1
20260504160405 18 140 0.0 1.6 0.00 0.05 0.00 90 1013.8
20260504160304 18 140 0.0 1.6 0.00 0.05 0.00 90 1013.6
20260504160205 18 140 0.0 1.6 0.00 0.05 0.00 90 1013.5
20260504160106 18 140 0.0 1.6 0.00 0.05 0.00 90 1013.6
20260504151106 18 145 0.0 3.2 0.00 0.15 0.00 91 1014.0
20260504151006 18 154 0.0 3.2 0.00 0.15 0.00 91 1014.2
20260504150921 18 146 0.0 3.2 0.00 0.15 0.00 91 1014.1
20260504150907 18 141 0.0 3.2 0.00 0.15 0.00 91 1014.1
20260504150806 18 130 1.6 3.2 0.00 0.15 0.00 91 1014.1
20260504150604 18 110 1.6 4.8 0.00 0.15 0.00 91 1014.1
20260504150506 18 105 1.6 4.8 0.00 0.15 0.00 91 1014.2
20260504150406 18 101 1.6 4.8 0.00 0.15 0.00 91 1014.3
20260504150306 18 96 1.6 4.8 0.00 0.15 0.00 91 1014.2
20260504150205 18 88 1.6 4.8 0.00 0.15 0.00 91 1014.3
20260504150106 18 87 1.6 4.8 0.00 0.15 0.00 91 1014.4
20260504141306 18 79 0.0 1.6 0.00 0.15 0.00 90 1014.5
20260504141206 18 79 0.0 3.2 0.00 0.15 0.00 90 1014.5
20260504141104 18 79 0.0 3.2 0.00 0.15 0.00 90 1014.4
20260504141006 18 79 0.0 3.2 0.00 0.15 0.00 90 1014.4
20260504140906 18 79 0.0 3.2 0.00 0.15 0.00 90 1014.5
20260504140805 18 79 1.6 3.2 0.00 0.15 0.00 90 1014.5
20260504140704 18 79 1.6 3.2 0.00 0.15 0.00 90 1014.6
20260504140606 18 79 1.6 3.2 0.00 0.15 0.00 90 1014.7
20260504140506 18 79 1.6 3.2 0.00 0.15 0.00 90 1014.7
20260504140406 18 79 1.6 3.2 0.00 0.15 0.00 90 1014.8
20260504140306 18 79 1.6 3.2 0.00 0.15 0.00 90 1014.7
20260504140206 18 79 1.6 3.2 0.00 0.15 0.00 90 1014.7
20260504140106 18 79 0.0 1.6 0.00 0.15 0.00 90 1014.6
20260504130805 18 0 0.0 0.0 0.00 0.28 0.00 89 1015.1
20260504130704 18 0 0.0 0.0 0.00 0.28 0.00 89 1014.9
20260504130606 18 0 0.0 0.0 0.00 0.28 0.00 89 1015.0
20260504130505 18 0 0.0 0.0 0.00 0.28 0.00 89 1015.1
20260504130405 18 0 0.0 0.0 0.00 0.28 0.00 89 1014.9
20260504130205 18 0 0.0 0.0 0.00 0.28 0.00 89 1015.1
20260504130105 18 0 0.0 0.0 0.00 0.28 0.00 89 1015.0
20260504120306 19 88 1.6 3.2 0.00 0.28 0.00 88 1015.5
20260504120205 19 90 1.6 3.2 0.00 0.28 0.00 88 1015.3
20260504120107 19 93 0.0 3.2 0.00 0.28 0.00 88 1015.4
20260504110720 20 71 1.6 6.4 0.00 0.28 0.00 89 1015.5
20260504110706 20 70 1.6 6.4 0.00 0.28 0.00 89 1015.5
20260504110606 20 65 1.6 6.4 0.00 0.28 0.00 89 1015.5
20260504110406 20 56 1.6 6.4 0.00 0.28 0.00 89 1015.6
20260504110306 20 55 1.6 6.4 0.00 0.28 0.00 89 1015.6
20260504110206 20 55 1.6 6.4 0.00 0.28 0.00 88 1015.6
20260504110106 20 60 1.6 6.4 0.00 0.28 0.00 88 1015.7
20260504100604 20 88 0.0 3.2 0.00 0.28 0.00 88 1015.5
20260504100506 20 84 0.0 3.2 0.00 0.28 0.00 88 1015.5
20260504100404 20 77 0.0 3.2 0.00 0.28 0.00 88 1015.3
20260504100306 20 74 0.0 3.2 0.00 0.28 0.00 88 1015.5
20260504100206 20 70 0.0 3.2 0.00 0.28 0.00 88 1015.4
20260504100106 20 71 0.0 4.8 0.00 0.28 0.00 88 1015.3
20260504090106 20 82 3.2 9.7 0.00 0.28 0.00 87 1015.2
20260504082005 20 79 1.6 9.7 0.00 0.28 0.00 87 1014.6
20260504081904 20 77 1.6 9.7 0.00 0.28 0.00 87 1014.8
20260504081819 20 75 1.6 9.7 0.00 0.28 0.00 87 1014.7
20260504081806 20 74 1.6 9.7 0.00 0.28 0.00 87 1014.7
20260504081705 20 76 1.6 9.7 0.00 0.28 0.00 87 1014.8
20260504081521 20 77 1.6 9.7 0.00 0.28 0.00 87 1014.7
20260504081504 20 76 1.6 9.7 0.00 0.28 0.00 87 1014.7
20260504081405 20 81 1.6 9.7 0.00 0.28 0.00 87 1014.4
20260504081320 20 84 1.6 6.4 0.00 0.28 0.00 87 1014.3
20260504081205 20 86 1.6 6.4 0.00 0.28 0.00 87 1014.5